星链-5726 (STARLINK-5726 )

导读

STARLINK-5726是美国太空探索技术公司(SpaceX)星链(Starlink)项目的一颗卫星,于2023年2月12日发射升空。它属于星链第二代卫星,旨在完善全球卫星互联网覆盖,为地面用户提供高速低延迟的宽带互联网服务,服务场景涵盖偏远地区网络接入、移动场景联网等,是SpaceX推进卫星星座组网的一环。

基本信息
目录编号:
55608
目录名称:
STARLINK-5726
国际标识:
2023-020AR
轨道中心:
EARTH
卫星名称:
星链-5726
卫星全名:
星链-5726 (STARLINK-5726 )
卫星状态:
在轨 (已飞行1219 天)
发射日期:
2023-02-12 UTC
国别 :
美国 (US)
星等 :
--
轨道信息
数据来源 国际轨道数据
星历时间: 2026-06-15T00:46:27+0800
9小时前
查看轨道信息
半长轴: 6861.213km
偏心率: 0.0000675
轨道倾角: 43.001°
近地点辐角 245.438°
升交点赤经 166.539°
平近点角 114.640°
近地点: 482.612km
远地点: 483.54km
周期: 94.267分钟
每日圈数: 15.275712
详细信息
固有亮度:
5
最大亮度:
2.5
卫星平台:
Starlink v1.5
覆盖范围:
全球
运营商:
太空探索技术公司
运营商所在国:
美国
制造商(研发单位):
太空探索技术公司
制造商所在国:
美国
使用方式:
暂无
卫星简介
星链(Starlink)计划是由太空探索技术公司(SpaceX)提出的一个巨型低轨卫星互联网星座项目,计划在2019年至2024年间在太空搭建由约1.2万颗卫星组成的“星链”网络,其中1584颗将部署在地球上空550千米处的近地轨道,并从2020年开始工作。该卫星仍在工作。
2D轨道图
3D轨道图
轨道高度分析图
轨道倾角分析图
轨道综合分析图
查看轨道综合分析图